COSMOS 1932

Satellite information

Favourite Embed

Satellite Type and Status

PAYLOADIN ORBIT

Key statistics

Satellite COSMOS 1932 at a glance.

Uptime

13629

Days in orbit

Revolutions

≈ 13.8

Per day

Orbit

LEO

Low Earth Orbit

Inclination

65.0

Latest

Satellite identification and parameters

Extended collection of information and parameters for COSMOS 1932.

Object identification

Identified? True

Debris? False

Object name: COSMOS 1932

International designator: 1988-019A

Object number (NORAD): 18957

Object ID (CCSDS): 18957

Country: COMMONWEALTH OF INDEPENDENT STATES (CIS)

Current information (Y/N): Y

RCS size: LARGE

Orbital parameters

Period: 104.363 minutes

Inclination: 65.0456 deg

SMA: 7342.744 km

Apoapsis: 1001.386 km

Periapsis: 927.833 km

RAAN: 300.5843 deg

Eccentricy: 0.0050086

Argument of periapsis: 331.9903 deg

Mean anomaly: 27.8462 deg

Mean motion: 13.79796841 rev/day

Mean motion (dot): -0.00000075 rev/day2

B* drag term: 0.000011689 1/REarth

Two-line elements (TLE)

Creation date: July 6, 2025, 10:26 p.m.

Reference frame: TEME

Reference center: EARTH

Epoch: July 6, 2025, 5:18 p.m. UTC

TLE line 0: 0 COSMOS 1932

TLE line 1: 1 18957U 88019A 25187.72101657 -.00000075 00000-0 11689-4 0 9990

TLE line 2: 2 18957 65.0456 300.5843 0050086 331.9903 27.8462 13.79796841881481

Live tracking on map

Real-time ground track for satellite COSMOS 1932.

In-orbit conjunctions

A list of the most updated potential collisions computed for object COSMOS 1932.

Target Orbit TCA Probability of collision Miss distance Type
THORAD AGENA D DEB SSO 2025-01-24 15:49:55 0.0003759854 226.0 (m) DEBRIS

Associated space launch

Active radar satellite for ocean surveillance powered by a nuclear reactor.

COSMOS 1932 was lifted into orbit during the mission ‘Tsiklon-2 | US-A 32’, on board a Tsiklon-2 space rocket.

The launch took place on March 14, 1988, 2:21 p.m. from 90.

For more information about the launch, click the button.

Launch to space Tsiklon-2 | US-A 32
Tsiklon-2 | US-A 32

Agency: N/A

Status: Launch Successful

Launch date: March 14, 1988, 2:21 p.m. UTC

Rocket: Tsiklon-2

Launch pad: 90

Location: Baikonur Cosmodrome, Republic of Kazakhstan

...

Latest news about this satellite

There are no fresh news available about this satellite. Check back as we update our databases every day.


Newsletter sign-up

Weekly statistics, charts and insights to help you stay on top of the space industry.